Weather reports worldwide

Advertisment
Brownsville/Int., United States of America (72250): temperature & dewpoint: 06.12.2019 04:00:00 - 12.12.2019 04:00:00 (CST)Brownsville/Int., United States of America (72250): wind speed & gusts: 06.12.2019 04:00:00 - 12.12.2019 04:00:00 (CST)Brownsville/Int., United States of America (72250): wind direction: 06.12.2019 04:00:00 - 12.12.2019 04:00:00 (CST)Brownsville/Int., United States of America (72250): reduced air pressure: 06.12.2019 04:00:00 - 12.12.2019 04:00:00 (CST)Brownsville/Int., United States of America (72250): visibility: 06.12.2019 04:00:00 - 12.12.2019 04:00:00 (CST)Brownsville/Int., United States of America (72250): precipitation: 06.12.2019 04:00:00 - 12.12.2019 04:00:00 (CST)
Date & Time tt [°C] td [°C] ff [km/h] ff [kn] fx [km/h] fx [kn] dd ppp [hPa] vv [km] rr [mm]
12.12.2019 04:00:00 9,4 6,7 9 5 - - NNW 1024,7 16 -
12.12.2019 03:00:00 9,4 6,7 11 6 - - NW 1025,5 16 -
12.12.2019 02:00:00 10,6 7,2 11 6 - - NW 1025,8 16 -
12.12.2019 01:00:00 10,0 6,7 13 7 - - NW 1026,4 16 -
12.12.2019 00:00:00 10,0 6,7 9 5 - - NW 1027,1 16 0,0
11.12.2019 23:00:00 9,4 6,1 11 6 - - NNW 1027,6 16 -
11.12.2019 22:00:00 10,0 6,1 13 7 - - NNW 1027,9 16 -
11.12.2019 21:00:00 10,6 6,7 15 8 - - NNW 1028,3 16 -
11.12.2019 20:00:00 11,7 6,7 15 8 - - NNW 1028,4 16 -
11.12.2019 19:00:00 11,7 6,7 15 8 - - NNW 1028,5 16 -
11.12.2019 18:00:00 12,2 7,2 16 9 - - N 1027,9 16 0,0
11.12.2019 17:00:00 13,9 7,2 16 9 - - N 1027,8 16 -
11.12.2019 16:00:00 15,0 7,2 21 11 - - N 1028,0 16 -
11.12.2019 15:00:00 15,6 7,2 21 11 - - N 1028,3 16 -
11.12.2019 14:00:00 15,0 7,8 26 14 - - NNW 1028,7 16 -
11.12.2019 13:00:00 13,9 7,2 18 10 - - N 1029,7 16 -
11.12.2019 12:00:00 12,8 7,2 24 13 - - NNW 1030,7 16 0,0
11.12.2019 11:00:00 11,7 6,7 28 15 - - NNW 1031,4 16 -
11.12.2019 10:00:00 11,1 6,7 28 15 - - NNW 1031,1 16 -
11.12.2019 09:00:00 10,6 6,7 28 15 - - N 1030,5 16 -
11.12.2019 08:00:00 10,0 6,7 26 14 - - NNW 1029,7 16 -
11.12.2019 07:00:00 10,0 7,2 24 13 - - NNW 1028,9 16 -
11.12.2019 06:00:00 10,0 7,2 22 12 - - NNW 1028,2 16 0,0
11.12.2019 05:00:00 10,0 7,8 22 12 - - NNW 1028,0 16 -
11.12.2019 04:00:00 10,0 7,2 24 13 - - NW 1027,9 16 -
11.12.2019 03:00:00 10,6 7,8 26 14 - - NW 1027,8 16 -
11.12.2019 02:00:00 10,6 7,2 24 13 48 26 NNW 1027,6 16 -
11.12.2019 01:00:00 11,1 7,8 24 13 - - NW 1027,6 16 -
11.12.2019 00:00:00 11,1 7,8 24 13 48 26 NNW 1027,2 16 0,0
10.12.2019 23:00:00 11,1 8,9 26 14 - - NNW 1026,8 16 -
10.12.2019 22:00:00 11,1 9,4 26 14 - - NNW 1026,1 16 -
10.12.2019 21:00:00 12,2 9,4 24 13 48 26 NNW 1025,4 16 -
10.12.2019 20:00:00 12,8 9,4 26 14 - - NNW 1024,4 16 -
10.12.2019 19:00:00 13,3 10,0 26 14 - - NNW 1023,2 16 -
10.12.2019 18:00:00 13,3 10,6 21 11 - - NNW 1021,7 10 -
10.12.2019 17:00:00 12,8 11,1 26 14 - - NNW 1020,5 6 0,0
10.12.2019 16:00:00 12,2 10,0 26 14 48 26 N 1019,5 16 -
10.12.2019 15:00:00 11,7 8,9 35 19 48 26 NNW 1018,6 8 -
10.12.2019 14:00:00 11,7 10,0 28 15 55 30 NNW 1018,1 15 0,0
10.12.2019 13:00:00 12,8 10,0 35 19 61 33 NNW 1017,8 16 -
10.12.2019 12:00:00 13,9 10,6 26 14 55 30 NNW 1017,5 16 0,0
10.12.2019 11:00:00 15,0 11,7 31 17 52 28 NNW 1016,3 16 -
10.12.2019 10:00:00 24,4 21,7 11 6 - - SW 1014,1 16 -
10.12.2019 09:00:00 23,3 21,1 0 0 - - N 1013,4 16 -
10.12.2019 08:00:00 22,8 21,1 0 0 - - N 1012,5 16 -
10.12.2019 07:00:00 22,2 21,1 0 0 - - N 1011,8 16 -
10.12.2019 06:00:00 22,2 20,6 5 3 - - ESE 1011,1 16 0,0
10.12.2019 05:00:00 22,8 20,6 5 3 - - S 1010,7 16 -
10.12.2019 04:00:00 22,8 21,1 0 0 - - N 1010,1 16 -
10.12.2019 03:00:00 22,8 21,1 13 7 - - S 1009,5 16 -
10.12.2019 02:00:00 22,8 21,1 18 10 - - S 1009,4 16 -
10.12.2019 01:00:00 23,3 21,1 16 9 - - S 1009,4 16 -
10.12.2019 00:00:00 23,3 21,1 18 10 - - S 1009,2 16 0,0
09.12.2019 23:00:00 22,8 20,6 22 12 - - S 1009,0 16 -
09.12.2019 22:00:00 22,2 20,6 16 9 - - SSE 1009,4 16 -
09.12.2019 21:00:00 22,2 20,6 15 8 - - S 1009,6 16 -
09.12.2019 20:00:00 22,8 20,6 16 9 - - SSE 1008,8 16 -
09.12.2019 19:00:00 23,3 20,6 21 11 - - SSE 1008,3 16 -
09.12.2019 18:00:00 24,4 20,6 31 17 50 27 SSE 1007,5 16 0,0
09.12.2019 17:00:00 26,1 20,0 34 18 55 30 S 1007,6 16 -
09.12.2019 16:00:00 26,7 19,4 37 20 54 29 S 1007,7 16 -
09.12.2019 15:00:00 27,2 19,4 44 24 65 35 S 1007,4 16 -
09.12.2019 14:00:00 27,8 19,4 42 23 63 34 SSE 1008,0 16 -
09.12.2019 13:00:00 28,3 19,4 42 23 59 32 S 1009,0 16 -
09.12.2019 12:00:00 26,7 19,4 37 20 54 29 S 1010,4 16 0,0
09.12.2019 11:00:00 26,7 19,4 50 27 63 34 S 1011,4 16 -
09.12.2019 10:00:00 25,6 20,0 42 23 57 31 S 1011,9 16 -
09.12.2019 09:00:00 23,9 20,0 35 19 50 27 S 1011,5 16 -
09.12.2019 08:00:00 22,8 20,0 35 19 - - S 1010,9 16 -
09.12.2019 07:00:00 22,2 20,0 26 14 - - S 1010,7 16 -
09.12.2019 06:00:00 22,2 20,0 21 11 - - S 1010,4 16 0,0
09.12.2019 05:00:00 22,2 20,0 22 12 - - S 1010,3 16 -
09.12.2019 04:00:00 22,2 20,0 22 12 - - S 1010,5 10 -
09.12.2019 03:00:00 22,2 20,0 24 13 - - S 1010,7 16 -
09.12.2019 02:00:00 21,7 19,4 22 12 - - S 1011,4 16 -
09.12.2019 01:00:00 21,7 18,9 22 12 - - S 1012,1 16 -
09.12.2019 00:00:00 21,7 18,9 15 8 - - S 1012,8 16 0,0
08.12.2019 23:00:00 21,1 19,4 16 9 - - SSE 1012,5 16 -
08.12.2019 22:00:00 21,7 19,4 15 8 - - SSE 1013,0 16 -
08.12.2019 21:00:00 21,7 20,0 15 8 - - SSE 1013,2 16 -
08.12.2019 20:00:00 21,1 19,4 9 5 - - SE 1013,4 16 -
08.12.2019 19:00:00 22,2 19,4 13 7 - - SSE 1013,1 16 -
08.12.2019 18:00:00 23,3 19,4 16 9 - - SSE 1012,7 16 0,0
08.12.2019 17:00:00 25,0 18,9 29 16 - - SSE 1012,7 16 -
08.12.2019 16:00:00 26,1 17,2 34 18 - - SSE 1013,0 16 -
08.12.2019 15:00:00 26,7 18,3 26 14 - - SSE 1013,4 16 -
08.12.2019 14:00:00 27,2 17,8 24 13 - - S 1013,9 16 -
08.12.2019 13:00:00 27,2 17,8 22 12 - - S 1015,5 16 -
08.12.2019 12:00:00 26,1 17,2 24 13 - - S 1016,9 16 0,0
08.12.2019 11:00:00 26,7 17,2 24 13 - - SSE 1017,6 16 -
08.12.2019 10:00:00 23,9 17,8 21 11 - - SSE 1017,8 16 -
08.12.2019 09:00:00 20,0 17,2 0 0 - - N 1018,2 16 -
08.12.2019 08:00:00 15,6 14,4 0 0 - - N 1018,2 15 -
08.12.2019 07:00:00 13,3 12,2 0 0 - - N 1018,1 16 -
08.12.2019 06:00:00 12,8 11,7 0 0 - - N 1017,5 1,2 0,0
08.12.2019 05:00:00 13,3 12,2 0 0 - - N 1017,5 1,2 -
08.12.2019 04:00:00 12,8 12,2 0 0 - - N 1018,1 0,8 -
08.12.2019 03:00:00 13,3 12,2 0 0 - - N 1018,5 1,6 -
08.12.2019 02:00:00 13,9 12,8 0 0 - - N 1019,2 11 -
08.12.2019 01:00:00 14,4 13,3 0 0 - - N 1019,7 13 -
08.12.2019 00:00:00 14,4 12,8 0 0 - - N 1020,2 13 0,0
07.12.2019 23:00:00 14,4 12,8 5 3 - - NNE 1021,0 16 -
07.12.2019 22:00:00 15,0 13,3 0 0 - - N 1021,8 16 -
07.12.2019 21:00:00 15,6 13,3 0 0 - - N 1021,8 16 -
07.12.2019 20:00:00 16,7 13,9 0 0 - - N 1022,1 16 -
07.12.2019 19:00:00 18,3 15,0 5 3 - - N 1022,1 16 -
07.12.2019 18:00:00 18,9 14,4 11 6 - - NE 1021,5 16 0,0
07.12.2019 17:00:00 20,6 14,4 16 9 - - NE 1021,3 16 -
07.12.2019 16:00:00 22,2 14,4 21 11 - - NE 1021,3 16 -
07.12.2019 15:00:00 23,9 15,0 21 11 - - NE 1021,3 16 -
07.12.2019 14:00:00 24,4 14,4 18 10 - - NNE 1021,7 16 -
07.12.2019 13:00:00 24,4 14,4 18 10 - - NE 1022,6 16 -
07.12.2019 12:00:00 24,4 14,4 11 6 - - - 1023,8 16 0,0
07.12.2019 11:00:00 23,3 15,0 16 9 - - N 1024,6 16 -
07.12.2019 10:00:00 20,6 15,0 11 6 - - N 1024,9 16 -
07.12.2019 09:00:00 17,8 13,9 11 6 - - NNW 1024,5 16 -
07.12.2019 08:00:00 15,0 13,3 8 4 - - NNW 1024,0 16 -
07.12.2019 07:00:00 13,9 12,2 8 4 - - NW 1023,6 16 -
07.12.2019 06:00:00 14,4 12,8 9 5 - - NNW 1023,1 16 0,0
07.12.2019 05:00:00 15,0 13,9 8 4 - - NW 1022,9 16 -
07.12.2019 04:00:00 15,6 13,9 9 5 - - NNW 1022,9 16 -
07.12.2019 03:00:00 16,1 14,4 8 4 - - N 1022,8 10 -
07.12.2019 02:00:00 16,7 15,0 8 4 - - N 1022,8 16 -
07.12.2019 01:00:00 16,7 15,6 8 4 - - N 1022,9 16 -
07.12.2019 00:00:00 17,8 16,7 8 4 - - NNW 1023,1 8 0,0
06.12.2019 23:00:00 18,3 17,2 8 4 - - N 1022,9 10 -
06.12.2019 22:00:00 17,8 17,2 0 0 - - N 1022,5 2,8 -
06.12.2019 21:00:00 18,9 17,8 0 0 - - N 1022,2 6 -
06.12.2019 20:00:00 19,4 18,3 0 0 - - N 1021,6 16 -
06.12.2019 19:00:00 21,1 18,9 5 3 - - NE 1020,9 16 -
06.12.2019 18:00:00 22,2 18,9 9 5 - - NE 1020,3 16 0,0
06.12.2019 17:00:00 24,4 19,4 16 9 - - N 1019,4 16 -
06.12.2019 16:00:00 24,4 20,0 16 9 - - ENE 1018,9 16 -
06.12.2019 15:00:00 25,6 20,0 22 12 - - NE 1018,6 16 -
06.12.2019 14:00:00 27,2 18,9 8 4 - - WNW 1018,4 16 -
06.12.2019 13:00:00 26,7 19,4 0 0 - - N 1018,9 16 -
06.12.2019 12:00:00 26,1 19,4 8 4 - - W 1019,8 16 0,0
06.12.2019 11:00:00 25,6 20,0 8 4 - - SW 1020,2 16 -
06.12.2019 10:00:00 24,4 20,6 11 6 - - SSW 1020,4 16 -
06.12.2019 09:00:00 22,2 20,6 5 3 - - S 1019,8 15 -
06.12.2019 08:00:00 20,6 20,0 0 0 - - N 1018,6 8 -
06.12.2019 07:00:00 20,0 18,9 0 0 - - N 1017,5 1,2 -
06.12.2019 06:00:00 21,1 19,4 11 6 - - S 1016,5 16 0,0
06.12.2019 05:00:00 21,7 20,0 21 11 - - S 1015,7 16 -
06.12.2019 04:00:00 21,7 21,1 16 9 - - S 1015,5 10 -

tt = temperature
td = dewpoint
ff = wind speed
fx = gusts
dd = wind direction
ppp = reduced air pressure
vv = visibility
rr = precipitation

Next stations